Location: ?ejeti?ky
(50.4060°N, 14.9016°E)
Time: 10:16:31
(UTC+00:00)

STARLINK-1282 - Pass Details

Date: 04 October 2020
Orbit: 549 x 550 km, 53.0° (Epoch: 21 October)

Event Time Altitude Azimuth Distance (km) Brightness Sun altitude
Exits shadow 04:05:46 - 230° (SW) 1,860 5.8 -10.4°
Reaches altitude 10° 04:05:53 10° 230° (SW) 1,818 5.8 -10.4°
Maximum altitude 04:09:56 58° 151° (SSE) 641 4.1 -9.7°
Drops below altitude 10° 04:14:01 10° 72° (ENE) 1,827 7.8 -9.1°
Sets 04:16:16 0° 69° (ENE) 2,723 8.8 -8.7°
